Location: Newark
(52.4480°N, 1.4938°W)
Time: 14:25:41
(UTC+00:00)

ISS - Visible Passes

Search period start: 30 September 2020 00:00
Search period end: 10 October 2020 00:00
Orbit: 419 x 421 km, 51.6° (Epoch: 30 September)

Date Brightness Start Highest point End Pass type
(mag) Time Alt. Az. Time Alt. Az. Time Alt. Az.
30 Sep -3.7 18:14:04 10° W 18:17:27 77° S 18:20:50 10° E visible
30 Sep -2.8 19:50:55 10° W 19:54:04 36° SSW 19:54:06 36° SSW visible
01 Oct -3.1 19:03:35 10° W 19:06:52 47° SSW 19:08:39 23° SE visible
01 Oct -0.7 20:41:12 10° WSW 20:41:37 11° WSW 20:41:37 11° WSW visible
02 Oct -3.3 18:16:16 10° W 18:19:37 58° SSW 18:22:56 10° ESE visible
02 Oct -1.7 19:53:27 10° W 19:55:59 20° SW 19:56:12 20° SSW visible
03 Oct -2.1 19:05:55 10° W 19:08:50 27° SSW 19:10:50 16° SSE visible
04 Oct -2.4 18:18:29 10° W 18:21:37 36° SSW 18:24:44 10° SE visible
05 Oct -1.0 19:08:44 10° WSW 19:10:36 14° SW 19:12:27 10° S visible
06 Oct -1.3 18:20:55 10° W 18:23:26 20° SW 18:25:57 10° SSE visible
